When you browse on this site, cookies collect data to enhance your experience and personalize the content and advertising you see.
Visit our Privacy Policy to learn more. By continuing to use the site, you agree to this use of cookies and data.
  • En España
  • Lista de países
  • Para 7 días
  • Temperatura del agua
  • Mapa Satelital
  • El tiempo en el mapa
  • Informadores
  • user-avatar
    Iniciar sesión

    Tiempo cada hora Borisovka

    Hoy, 24 Mayo, Viernes

    Tiempo Temperatura Precipitaciones Viento Presión Humedad
    00:00 +15°C° 0 mm 2 mps 740 mmHg 95%
    01:00 +15°C° 0 mm 2 mps 740 mmHg 96%
    02:00 +14°C° 0 mm 1 mps 740 mmHg 97%
    03:00 +15°C° 0.6 mm 2 mps 740 mmHg 97%
    04:00 +15°C° 0.6 mm 2 mps 740 mmHg 97%
    05:00 +14°C° 0.6 mm 3 mps 741 mmHg 97%
    06:00 +14°C° 0.1 mm 3 mps 741 mmHg 95%
    07:00 +16°C° 0.1 mm 3 mps 741 mmHg 93%
    08:00 +14°C° 0 mm 3 mps 741 mmHg 92%
    09:00 +16°C° 0.1 mm 3 mps 741 mmHg 91%
    10:00 +16°C° 0.1 mm 3 mps 741 mmHg 90%
    11:00 +16°C° 0.1 mm 3 mps 741 mmHg 90%
    12:00 +17°C° 0 mm 3 mps 741 mmHg 87%
    13:00 +17°C° 0 mm 3 mps 741 mmHg 85%
    14:00 +18°C° 0 mm 3 mps 741 mmHg 83%
    15:00 +18°C° 0.1 mm 3 mps 741 mmHg 82%
    16:00 +19°C° 0.1 mm 3 mps 741 mmHg 80%
    17:00 +19°C° 0.1 mm 3 mps 741 mmHg 79%
    18:00 +18°C° 0.4 mm 3 mps 741 mmHg 84%
    19:00 +17°C° 0.4 mm 3 mps 741 mmHg 89%
    20:00 +16°C° 0.4 mm 3 mps 741 mmHg 94%
    21:00 +16°C° 0.3 mm 3 mps 741 mmHg 95%
    22:00 +14°C° 0.3 mm 3 mps 740 mmHg 96%
    23:00 +14°C° 0.3 mm 3 mps 740 mmHg 98%

    Mañana, 25 Mayo, Sábado

    Tiempo Temperatura Precipitaciones Viento Presión Humedad
    00:00 +14°C° 0 mm 3 mps 740 mmHg 97%
    01:00 +14°C° 0 mm 3 mps 740 mmHg 97%
    02:00 +14°C° 0 mm 3 mps 740 mmHg 97%
    03:00 +14°C° 1 mm 3 mps 740 mmHg 97%
    04:00 +15°C° 1 mm 2 mps 739 mmHg 97%
    05:00 +15°C° 1 mm 2 mps 739 mmHg 97%
    06:00 +15°C° 1.4 mm 2 mps 739 mmHg 97%
    07:00 +16°C° 1.4 mm 2 mps 739 mmHg 96%
    08:00 +16°C° 1.4 mm 3 mps 739 mmHg 96%
    09:00 +17°C° 0.1 mm 3 mps 739 mmHg 93%
    10:00 +18°C° 0.1 mm 3 mps 738 mmHg 90%
    11:00 +19°C° 0.1 mm 2 mps 738 mmHg 88%
    12:00 +20°C° 0.4 mm 3 mps 738 mmHg 84%
    13:00 +20°C° 0.4 mm 3 mps 738 mmHg 80%
    14:00 +21°C° 0.4 mm 3 mps 738 mmHg 76%
    15:00 +21°C° 0.7 mm 3 mps 737 mmHg 79%
    16:00 +21°C° 0.7 mm 2 mps 737 mmHg 82%
    17:00 +20°C° 0.7 mm 2 mps 737 mmHg 85%
    18:00 +19°C° 0.6 mm 2 mps 737 mmHg 87%
    19:00 +18°C° 0.6 mm 2 mps 737 mmHg 89%
    20:00 +16°C° 0.6 mm 2 mps 737 mmHg 91%
    21:00 +15°C° 0 mm 2 mps 737 mmHg 92%
    22:00 +15°C° 0 mm 2 mps 737 mmHg 93%
    23:00 +14°C° 0 mm 2 mps 737 mmHg 95%

    Pasado mañana, 26 Mayo, Domingo

    Tiempo Temperatura Precipitaciones Viento Presión Humedad
    00:00 +13°C° 0 mm 2 mps 737 mmHg 95%
    01:00 +12°C° 0 mm 2 mps 738 mmHg 96%
    02:00 +12°C° 0 mm 2 mps 738 mmHg 96%
    03:00 +12°C° 0 mm 2 mps 738 mmHg 96%
    04:00 +12°C° 0 mm 2 mps 738 mmHg 96%
    05:00 +12°C° 0 mm 2 mps 738 mmHg 96%
    06:00 +13°C° 0 mm 2 mps 739 mmHg 91%
    07:00 +14°C° 0 mm 2 mps 739 mmHg 86%
    08:00 +15°C° 0 mm 2 mps 739 mmHg 81%
    09:00 +16°C° 0 mm 2 mps 739 mmHg 74%
    10:00 +17°C° 0 mm 2 mps 739 mmHg 68%
    11:00 +18°C° 0 mm 3 mps 739 mmHg 61%
    12:00 +18°C° 0 mm 3 mps 739 mmHg 60%
    13:00 +19°C° 0 mm 3 mps 739 mmHg 59%
    14:00 +19°C° 0 mm 4 mps 739 mmHg 59%
    15:00 +19°C° 0 mm 4 mps 739 mmHg 60%
    16:00 +19°C° 0 mm 4 mps 738 mmHg 61%
    17:00 +18°C° 0 mm 4 mps 738 mmHg 63%
    18:00 +17°C° 0 mm 3 mps 738 mmHg 69%
    19:00 +14°C° 0 mm 3 mps 738 mmHg 75%
    20:00 +14°C° 0 mm 2 mps 738 mmHg 81%
    21:00 +12°C° 0 mm 3 mps 738 mmHg 83%
    22:00 +12°C° 0 mm 3 mps 738 mmHg 84%
    23:00 +12°C° 0 mm 3 mps 738 mmHg 86%

    27 Mayo, Lunes

    Tiempo Temperatura Precipitaciones Viento Presión Humedad
    00:00 +11°C° 0 mm 3 mps 739 mmHg 88%
    01:00 +11°C° 0 mm 3 mps 739 mmHg 90%
    02:00 +11°C° 0 mm 3 mps 739 mmHg 92%
    03:00 +11°C° 0 mm 3 mps 739 mmHg 91%
    04:00 +10°C° 0 mm 3 mps 740 mmHg 91%
    05:00 +10°C° 0 mm 3 mps 740 mmHg 90%
    06:00 +11°C° 0 mm 4 mps 740 mmHg 83%
    07:00 +12°C° 0 mm 4 mps 741 mmHg 75%
    08:00 +13°C° 0 mm 5 mps 741 mmHg 68%
    09:00 +14°C° 0 mm 5 mps 741 mmHg 66%
    10:00 +15°C° 0 mm 5 mps 742 mmHg 63%
    11:00 +16°C° 0 mm 5 mps 742 mmHg 61%
    12:00 +17°C° 0.1 mm 5 mps 742 mmHg 62%
    13:00 +17°C° 0.1 mm 5 mps 742 mmHg 63%
    14:00 +19°C° 0.1 mm 5 mps 742 mmHg 64%
    15:00 +18°C° 0.1 mm 4 mps 742 mmHg 67%
    16:00 +18°C° 0.1 mm 4 mps 742 mmHg 69%
    17:00 +18°C° 0.1 mm 4 mps 742 mmHg 72%
    18:00 +17°C° 0 mm 3 mps 742 mmHg 77%
    19:00 +16°C° 0 mm 3 mps 742 mmHg 83%
    20:00 +15°C° 0 mm 2 mps 742 mmHg 88%
    21:00 +14°C° 0 mm 3 mps 742 mmHg 88%
    22:00 +14°C° 0 mm 3 mps 742 mmHg 87%
    23:00 +14°C° 0 mm 3 mps 742 mmHg 86%

    28 Mayo, Martes

    Tiempo Temperatura Precipitaciones Viento Presión Humedad
    00:00 +14°C° 0 mm 3 mps 742 mmHg 87%
    01:00 +13°C° 0 mm 3 mps 742 mmHg 87%
    02:00 +13°C° 0 mm 3 mps 742 mmHg 88%
    03:00 +13°C° 0 mm 3 mps 742 mmHg 89%
    04:00 +14°C° 0 mm 3 mps 742 mmHg 89%
    05:00 +14°C° 0 mm 3 mps 743 mmHg 90%
    06:00 +16°C° 0 mm 3 mps 743 mmHg 85%
    07:00 +18°C° 0 mm 3 mps 743 mmHg 81%
    08:00 +20°C° 0 mm 3 mps 743 mmHg 77%
    09:00 +21°C° 0 mm 3 mps 743 mmHg 73%
    10:00 +22°C° 0 mm 3 mps 743 mmHg 69%
    11:00 +24°C° 0 mm 3 mps 743 mmHg 65%
    12:00 +24°C° 0.3 mm 3 mps 743 mmHg 66%
    13:00 +25°C° 0.3 mm 4 mps 743 mmHg 66%
    14:00 +25°C° 0.3 mm 4 mps 743 mmHg 66%
    15:00 +24°C° 0.8 mm 3 mps 743 mmHg 75%
    16:00 +21°C° 0.8 mm 3 mps 743 mmHg 83%
    17:00 +20°C° 0.8 mm 2 mps 743 mmHg 92%
    18:00 +20°C° 0 mm 3 mps 743 mmHg 92%
    19:00 +20°C° 0 mm 3 mps 743 mmHg 92%
    20:00 +19°C° 0 mm 3 mps 743 mmHg 92%
    21:00 +19°C° 0 mm 4 mps 742 mmHg 91%
    22:00 +19°C° 0 mm 4 mps 742 mmHg 90%
    23:00 +19°C° 0 mm 4 mps 742 mmHg 89%

    29 Mayo, Miércoles

    Tiempo Temperatura Precipitaciones Viento Presión Humedad
    00:00 +19°C° 0 mm 4 mps 742 mmHg 90%
    01:00 +18°C° 0 mm 4 mps 742 mmHg 92%
    02:00 +18°C° 0 mm 4 mps 742 mmHg 94%
    03:00 +18°C° 0 mm 4 mps 742 mmHg 92%
    04:00 +18°C° 0 mm 4 mps 742 mmHg 91%
    05:00 +18°C° 0 mm 4 mps 741 mmHg 90%
    06:00 +19°C° 0 mm 5 mps 741 mmHg 83%
    07:00 +21°C° 0 mm 5 mps 741 mmHg 76%
    08:00 +22°C° 0 mm 6 mps 742 mmHg 70%
    09:00 +23°C° 0 mm 6 mps 741 mmHg 68%
    10:00 +24°C° 0 mm 6 mps 741 mmHg 66%
    11:00 +26°C° 0 mm 6 mps 741 mmHg 64%
    12:00 +26°C° 0.4 mm 6 mps 741 mmHg 67%
    13:00 +26°C° 0.4 mm 6 mps 741 mmHg 69%
    14:00 +26°C° 0.4 mm 7 mps 741 mmHg 72%
    15:00 +24°C° 1.7 mm 6 mps 741 mmHg 76%
    16:00 +23°C° 1.7 mm 6 mps 741 mmHg 80%
    17:00 +22°C° 1.7 mm 6 mps 740 mmHg 85%
    18:00 +21°C° 0.4 mm 5 mps 741 mmHg 87%
    19:00 +20°C° 0.4 mm 4 mps 741 mmHg 90%
    20:00 +19°C° 0.4 mm 3 mps 741 mmHg 93%
    21:00 +19°C° 0.3 mm 3 mps 741 mmHg 94%
    22:00 +19°C° 0.3 mm 3 mps 741 mmHg 95%
    23:00 +18°C° 0.3 mm 2 mps 741 mmHg 96%
    Mostrar más